Welcome to the New NWS' Forecast!
Most changes are behind the scenes, but click here for differences you might notice.
Latest weather observations around

San Jose, San Jose International Airport (KSJC)

Using English Units (Switch to International System of Units)
Date/ Time (PDT) Wind (mph) Vis. (mi) Weather Sky Cond. Temp (°F) Rel. Humidity Wind Chill (°F) Heat Index (°F) Pressure Precip. (in)
Air Dwpt 6 hour Altimeter (inHg) Sea level (inHg) 1 hr 3 hr 6 hr
Max Min
Sep 18 15:53 NW 13 10 Mostly Clear FEW070 72 54     53%   71 29.89 29.89      
Sep 18 14:53 NW 13 10 Mostly Clear FEW080 74 53     48%   73 29.9 29.89      
Sep 18 13:53 NNW 8 10 Mostly Clear FEW080 74 51     45%   73 29.91 29.91      
Sep 18 12:53 NNW 3 10 Clear CLR 71 48     44%   70 29.94 29.93      
Sep 18 11:53 3 10 Clear CLR 68 49     50%     29.96 29.95      
Sep 18 10:53 Calm 10 Mostly Clear FEW017 64 50     60%     29.98 29.98      
Sep 18 08:53 S 5 10 Mostly Clear FEW009 58 50     75%     29.98 29.98      
Sep 18 07:53 S 6 10 Mostly Clear FEW014 54 49     83%     29.98 29.98      
Sep 18 06:53 SSE 6 10 Mostly Clear FEW006 52 48     86%     29.98 29.97      
Sep 18 05:53 Calm 10 Clear CLR 52 47     83%     29.97 29.96      
Sep 18 04:53 Calm 10 Clear CLR 52 47     83%     29.96 29.95      
Sep 18 03:53 Calm 10 Clear CLR 53 48     83%     29.97 29.96      
Sep 18 02:53 SSE 5 10 Clear CLR 54 49     83%     29.97 29.96      
Sep 18 01:53 NW 3 10 Clear CLR 57 51     81%     29.98 29.97      
Sep 18 00:53 NNW 5 10 Clear CLR 56 51     84%     29.98 29.98      
Sep 17 23:53 NNW 6 10 Mostly Clear FEW008 58 52     81%     29.99 29.98      
Sep 17 22:53 NNW 8 10 Mostly Clear FEW009 59 51     75%     29.99 29.99      
Sep 17 21:53 NNW 8 10 Mostly Clear FEW009 59 52     78%     29.99 29.99      
Sep 17 21:41 N 10 10 Mostly Clear FEW009 59 51     75%     30        
Sep 17 20:53 NW 10 10 Mostly Clear FEW010 60 51     72%     29.99 29.98      
Sep 17 19:53   10 Mostly Clear FEW011 61 50     67%     29.96 29.96      
Sep 17 18:53 NNW 15 10 Mostly Clear FEW021 66 50     56%     29.95 29.95      
Sep 17 17:53   10 Mostly Clear FEW021 68 50     53%     29.94 29.94      
Sep 17 16:53   10 Mostly Clear FEW019 69 49     49%     29.94 29.93      
Sep 17 15:53   10 Mostly Clear FEW019 72 53     51%   71 29.95 29.94      
Sep 17 14:53   10 Mostly Clear FEW019 73 51     46%   72 29.95 29.94      
Sep 17 13:53 NW 14 10 Mostly Clear FEW015 FEW040 73 52     48%   72 29.96 29.96      
Sep 17 12:53 NNW 10 10 Clear CLR 72 53     51%   71 29.98 29.97      
Sep 17 11:53 NW 8 10 Clear CLR 71 51     49%   70 29.98 29.98      
Sep 17 10:53 NE 6 10 Mostly Clear FEW013 67 52     59%     30 29.99      
Sep 17 09:53 Calm 10 Mostly Clear FEW013 63 53     70%     30 30      
Sep 17 08:53 Calm 10 Mostly Clear FEW011 FEW014 59 53     81%     30 29.99      
Sep 17 08:43 Calm 10 Partly Cloudy FEW006 SCT010 SCT012 59 53     81%     30        
Sep 17 07:53 Calm 10 Cloudy FEW006 BKN010 OVC012 57 51     81%     29.99 29.99      
Sep 17 06:53 SSW 3 10 Mostly Cloudy FEW003 SCT008 BKN010 54 50     86%     29.98 29.98      
Sep 17 05:53 Calm 10 Mostly Clear FEW001 FEW013 54 48     80%     29.97 29.96      
Sep 17 04:53 Calm 10 Clear CLR 54 48     80%     29.96 29.96      
Sep 17 03:53 SW 3 10 Clear CLR 55 50     83%     29.96 29.96      
Sep 17 02:53 Calm 10 Clear CLR 56 52     87%     29.97 29.97      
Sep 17 01:53 SW 5 10 Clear CLR 57 52     83%     29.97 29.97      
Sep 17 00:53 Calm 10 Clear CLR 59 54     83%     29.98 29.98      
Sep 16 23:53 Calm 10 Mostly Clear FEW006 60 54     80%     29.99 29.98      
Sep 16 22:53 N 6 10 Mostly Clear FEW007 62 54     75%     29.99 29.98      
Sep 16 21:53 N 8 10 Mostly Clear FEW007 62 55     78%     29.99 29.98      
Sep 16 21:24 N 8 10 Mostly Clear FEW009 62 54     75%     29.99        
Sep 16 20:53 N 9 10 Mostly Clear FEW010 63 54     72%     29.98 29.98      
Sep 16 19:53 N 10 10 Mostly Clear FEW012 64 55     73%     29.97 29.97      
Sep 16 18:53 N 15 10 Mostly Clear FEW015 FEW023 66 53     63%     29.96 29.96      
Sep 16 17:53   10 Mostly Clear FEW020 69 53     57%     29.96 29.95      
Sep 16 16:53   10 Mostly Clear FEW020 72 50     46%   71 29.96 29.96      
Sep 16 15:53   10 Mostly Clear FEW020 75 48     38%   74 29.97 29.96      
Sep 16 14:53   10 Clear CLR 75 49     40%   74 29.98 29.98      
Sep 16 13:53 NNW 16 10 Clear CLR 75 47     37%   74 29.99 29.99      
Sep 16 12:53 NNW 10 10 Clear CLR 73 47     39%   72 30.01 30.01      
Sep 16 11:53 NNW 6 10 Clear CLR 71 45     39%   70 30.02 30.01      
Sep 16 10:53 NW 6 10 Clear CLR 68 47     47%     30.03 30.03      
Sep 16 09:53 NNW 3 10 Mostly Clear FEW016 64 49     58%     30.03 30.03      
Sep 16 08:53 Calm 10 Mostly Clear FEW016 59 50     72%     30.02 30.02      
Sep 16 07:53 SE 3 10 Mostly Clear FEW014 54 49     83%     30.02 30.02      
Sep 16 06:53 S 3 10 Mostly Clear FEW013 51 48     89%     30.01 30      
Sep 16 05:53 SE 5 10 Clear CLR 50 47     89%     30 29.99      
Sep 16 04:53 SSE 3 10 Clear CLR 52 49     89%     29.98 29.98      
Sep 16 03:53 Calm 10 Clear CLR 54 50     86%     29.98 29.98      
Sep 16 02:53 Calm 10 Clear CLR 55 51     86%     29.98 29.98      
Sep 16 01:53 SSW 3 10 Clear CLR 56 51     84%     29.98 29.97      
Sep 16 00:53 Calm 10 Clear CLR 58 52     81%     29.98 29.97      
Sep 15 23:53 N 6 10 Mostly Clear FEW006 59 52     78%     29.98 29.98      
Sep 15 22:53 N 6 10 Mostly Clear FEW006 59 53     81%     29.98 29.98      
Sep 15 21:53 NNE 7 10 Mostly Clear FEW008 60 54     80%     29.98 29.98      
Sep 15 20:53 N 8 10 Partly Cloudy FEW009 SCT017 60 54     80%     29.98 29.97      
Sep 15 19:53 N 11 10 Partly Cloudy FEW009 SCT015 61 55     81%     29.97 29.96      
Sep 15 19:30 N 11 10 Mostly Clear FEW008 62 55     78%     29.96        
Sep 15 18:53   10 Mostly Clear FEW015 FEW023 64 53     67%     29.95 29.95      
Sep 15 17:53   10 Mostly Clear FEW015 FEW028 68 52     57%     29.95 29.94      
Sep 15 16:53   10 Mostly Clear FEW015 FEW026 71 48     44%   70 29.95 29.94      
Sep 15 15:53 NNW 14 10 Mostly Clear FEW026 72 47     41%   71 29.95 29.94      
Sep 15 14:53 N 14 10 Mostly Clear FEW026 71 49     45%   70 29.96 29.96      
Sep 15 13:53   10 Mostly Clear FEW026 71 49     45%   70 29.97 29.96      
Sep 15 12:53 NNW 13 10 Mostly Clear FEW026 71 50     47%   70 29.98 29.97 0    
Sep 15 11:53 NNW 10 10 Mostly Clear FEW026 70 48     46%     29.97 29.97      
Sep 15 10:53 Calm 10 Mostly Clear FEW026 66 47     50%     29.99 29.98      
Sep 15 09:53 Calm 10 Mostly Clear FEW024 63 48     58%     29.97 29.96      
Sep 15 08:53 ESE 3 10 Mostly Clear FEW024 FEW050 61 49     64%     29.96 29.96      
Sep 15 07:53 S 5 10 Mostly Clear FEW024 FEW050 57 48     72%     29.95 29.95      
Sep 15 06:53 SSW 5 10 Mostly Clear FEW024 FEW040 55 47     74%     29.92 29.92      
Sep 15 05:53 SE 3 10 Partly Cloudy FEW010 SCT030 55 47     74%     29.9 29.9      
Sep 15 04:53 Calm 10 Clear CLR 56 47     72%     29.9 29.89      
Sep 15 03:53 Calm 10 Mostly Clear FEW120 56 47     72%     29.88 29.88      
Sep 15 02:53 WSW 3 10 Clear CLR 56 48     75%     29.88 29.87      
Sep 15 01:53 Calm 10 Clear CLR 59 50     72%     29.88 29.88      
Sep 15 00:53 Calm 10 Clear CLR 60 51     72%     29.88 29.88      
Sep 14 23:53 Calm 10 Mostly Clear FEW100 60 50     69%     29.88 29.88      
Sep 14 22:53 NE 3 10 Mostly Clear FEW100 61 51     70%     29.88 29.88      
Sep 14 21:53 NNE 8 10 Mostly Clear FEW090 61 51     70%     29.88 29.88      
Sep 14 20:53 N 8 10 Partly Cloudy FEW100 SCT170 62 51     67%     29.88 29.88      
Sep 14 19:53 N 10 10 Mostly Cloudy FEW038 SCT100 BKN180 64 51     63%     29.87 29.87      
Sep 14 18:53   10 Mostly Cloudy SCT060 BKN100 BKN160 66 51     59%     29.87 29.86      
Sep 14 17:53   10 Mostly Cloudy FEW060 SCT100 BKN160 71 50     47%   70 29.86 29.86      
Sep 14 16:53   10 Mostly Cloudy FEW060 SCT100 BKN160 75 47     37%   74 29.86 29.86      
Sep 14 15:53 NNW 14 10 Partly Cloudy FEW060 SCT090 SCT150 77 39     26%   76 29.87 29.86      
Sep 14 14:53 NW 11 10 Partly Cloudy FEW080 SCT100 SCT150 77 40     26%   76 29.88 29.88      
Sep 14 13:53 NW 7 10 Partly Cloudy FEW070 FEW100 SCT150 74 40     29%   72 29.9 29.89      
Sep 14 12:53 N 6 10 Partly Cloudy FEW070 FEW100 SCT150 73 45     37%   72 29.92 29.92      
Sep 14 11:53 N 7 10 Partly Cloudy FEW070 SCT100 SCT150 71 50     47%   70 29.94 29.94      
May 15 09:53 Calm 10 Cloudy FEW021 BKN028 OVC035 60 47     62%     30.05 30.05      
May 14 23:53 WNW 11 10 Mostly Cloudy FEW010 SCT024 BKN045 56 49     77%     30.01 30.01      
May 14 15:53 WNW 13 10 Mostly Clear FEW025 FEW032 67 51     57%     29.96 29.96      
May 14 08:53 Calm 10 Cloudy FEW012 BKN019 OVC024 59 49     69%     30 30      
May 13 19:31 NW 14 10 Mostly Clear FEW008 63 50     63%     29.97        
May 13 02:53 SE 11 10 Clear CLR 56 49     77%     29.95 29.95      
May 12 00:53 E 3 10 Clear CLR 63 49     60%     29.81 29.8      
Jun 11 20:53 WSW 13 10 Clear   58 45     62%     29.98 29.98      
Jun 10 18:53   10 Partly Cloudy FEW025 SCT037 SCT065 66 45     47%     29.93 29.93      
Jun 10 12:53   10 Partly Cloudy FEW015 SCT032 SCT050 69 47     45%     29.98 29.97      
Notice The following observation data may not be complete
Jun 10 03:34   10 Mostly Cloudy BKN023          %              
Jun 09 00:53 NW 5 10 Clear   64 61     90%     29.96 29.96      
Jun 08 16:53 ESE 8 10 Cloudy FEW009 BKN038 OVC075 70 58     66%     29.99 29.98     0
Jun 07 14:53   10 Mostly Cloudy FEW050 SCT090 BKN130 71 53     53%   70 29.92 29.91      
Jun 07 06:53 Calm 7 Mostly Cloudy FEW001 SCT007 BKN010 58 52     81%     29.93 29.92      
Jun 06 04:53 NW 5 9 Clear CLR 55 52     89%     29.93 29.92      
Jun 06 03:53 NNW 6 9 Clear CLR 56 52     87%     29.92 29.92      
Jun 05 20:53 W 9 10 Partly Cloudy FEW002 FEW065 SCT110 65 53     65%     29.89 29.88      
Jun 05 12:53 NW 10 10 Mostly Clear FEW035 FEW090 79 51     38%   78 29.89 29.88